Regional Weather Roundup
Issued by NWS Green Bay, WI

Home | Current Version | Previous Version | Graphics & Text | Print | Product List | Glossary Off
Versions: 1 2 3 4 5 6 7 8 9 10 11 12 13 14 15 16 17 18 19 20 21 22 23 24 25 26 27 28 29 30 31 32 33 34 35 36 37 38 39 40 41 42 43 44 45 46 47 48 49 50

000
ASUS43 KGRB 161759
RWRGRB

NORTH-CENTRAL AND NORTHEAST WISCONSIN REGIONAL WEATHER ROUNDUP
NATIONAL WEATHER SERVICE GREEN BAY WI
100 PM CDT TUE SEP 16 2014

WIZ005-009-010>012-018-019-161900-
NORTH CENTRAL WISCONSIN

CITY           SKY/WX    TMP DP  RH WIND       PRES   REMARKS
IRONWOOD       SUNNY     63  43  48 W17G23    30.01F
MANITOWISH WTR NOT AVBL
ARBOR VITAE    SUNNY     62  40  44 W12G17    30.07F
EAGLE RIVER    NOT AVBL
LAND O LAKES   NOT AVBL
RHINELANDER    SUNNY     63  40  42 W15G22    30.09F
PHILLIPS       NOT AVBL
ANTIGO         NOT AVBL
TOMAHAWK       NOT AVBL
MERRILL        NOT AVBL
$$

WIZ013-073-161900-
NORTHEAST WISCONSIN

CITY           SKY/WX    TMP DP  RH WIND       PRES   REMARKS
IRON MOUNTAIN  SUNNY     65  39  38 W16G22    30.03F
MARINETTE      SUNNY     63  43  48 SW13G18   30.07F
$$

WIZ017-030-035>037-045-161900-
CENTRAL WISCONSIN

CITY           SKY/WX    TMP DP  RH WIND       PRES   REMARKS
MEDFORD        NOT AVBL
WAUSAU         SUNNY     62  40  44 W15G24    30.11F
MOSINEE        NOT AVBL
MARSHFIELD     SUNNY     63  43  48 W13       30.13F
WISC RAPIDS    SUNNY     63  40  42 W8        30.16F
STEVENS POINT  NOT AVBL
WAUPACA        NOT AVBL
SHAWANO        NOT AVBL
CLINTONVILLE   NOT AVBL
$$

WIZ038-039-048-051-161900-
FOX VALLEY

CITY           SKY/WX    TMP DP  RH WIND       PRES   REMARKS
NWS GREEN BAY  SUNNY     63  42  46 W8        30.12F
APPLETON       SUNNY     61  37  41 W9        30.14F
OSHKOSH        SUNNY     62  41  46 VRB5      30.14F
FOND DU LAC    SUNNY     61  39  44 SW9       30.15F
$$

WIZ022-050-052-161900-
EAST CENTRAL WISCONSIN

CITY           SKY/WX    TMP DP  RH WIND       PRES   REMARKS
STURGEON BAY   SUNNY     61  39  44 W10       30.11F
MANITOWOC      NOT AVBL
SHEBOYGAN      SUNNY     61  38  42 W7        30.15F
$$

LMZ563-521-522-541>543-161900-
LAKESHORE

STATION/POSITION TIME  TEMP    WIND        PRES    VSBY  WAVE
                       AIR SEA DIR/SP/G                  HT/PER
                 (UTC) (F)     (DEG/KT/KT) (MB)    (MI)  (FT/S)
SHEBOYGAN LKSHOR 1700   57 51  290/  7/  9 1021.8F
KEWAUNEE LKSHORE 1700   60     240/  6/ 10 1019.2F
NORTHPORT PIER   1700   61     200/  7/ 12 1018.3F
N MID LAKE BUOY  1700   54 59  220/ 12/ 14 1019.4F         1/ 3
S GREEN BAY BUOY 1700   59     VRB 10/ 12  1020.6F
CHAMBERS ISLAND  1700   61     190/  5/ 12 1019.0F
MENOMINEE LKSHOR 1700   61     240/ 12/ 16 1019.4F
$$


USA.gov is the U.S. government's official web portal to all federal, state and local government web resources and services.